Location: Gälforsberget
(66.6500°N, 22.4167°E)
Time: 09:29:56
(UTC+00:00)

Cosmos 1503 Rocket - Pass Details

Date: 11 April 2026
Orbit: 748 x 786 km, 74.0° (Epoch: 19 May)

Event Time Altitude Azimuth Distance (km) Brightness Sun altitude
Rises 18:58:28 0° 230° (SW) 3,278 7.4 -5.6°
Reaches altitude 10° 19:00:51 10° 232° (SW) 2,352 6.7 -5.8°
Maximum altitude 19:06:13 75° 318° (NW) 820 4.4 -6.3°
Drops below altitude 10° 19:11:35 10° 45° (NE) 2,351 6.5 -6.7°
Sets 19:13:59 0° 47° (NE) 3,278 7.2 -6.8°
